CW8690 Weather Reports


Display with metric or nautical units.
time (UTC)temp
F
wind
direction
speed
MPH
gust
MPH
rain 1hr
in
rain 24hr
in
rain mn
in
humidity
%
barometer
mb
20260506032641 80 130 8.0 12.0 0.00 0.00 0.00 91 1005.8
20260506031116 80 98 6.0 13.0 0.00 0.00 0.00 91 1005.8
20260506025641 80 142 7.0 13.0 0.00 0.00 0.00 91 1005.5
20260506024139 80 104 8.0 14.0 0.00 0.00 0.00 90 1005.3
20260506022620 80 144 7.0 14.0 0.00 0.00 0.00 90 1005.0
20260506021135 80 134 9.0 15.0 0.00 0.00 0.00 90 1004.7
20260506015625 80 128 9.0 14.0 0.00 0.00 0.00 89 1004.3
20260506014125 80 148 9.0 15.0 0.00 0.00 0.00 89 1004.1
20260506012623 81 141 8.0 13.0 0.00 0.00 0.00 89 1004.1
20260506011141 81 110 7.0 15.0 0.00 0.00 0.00 88 1003.7
20260506005618 81 90 7.0 17.0 0.00 0.00 0.00 87 1003.5
20260506004118 81 138 8.0 18.0 0.00 0.00 0.00 87 1003.4
20260506002641 82 128 10.0 18.0 0.00 0.00 0.00 86 1003.4
20260506001157 82 121 11.0 17.0 0.00 0.00 0.00 86 1003.3
20260505235623 82 129 11.0 20.0 0.00 0.00 0.00 85 1003.2
20260505234146 83 134 11.0 19.0 0.00 0.00 0.00 84 1003.2
20260505232621 83 170 9.0 20.0 0.00 0.00 0.00 84 1003.2
20260505231121 84 126 13.0 19.0 0.00 0.00 0.00 81 1003.2
20260505225639 84 119 15.0 21.0 0.00 0.00 0.00 81 1003.0
20260505224140 84 161 13.0 22.0 0.00 0.00 0.00 81 1003.2
20260505222639 85 48 9.0 25.0 0.00 0.00 0.00 80 1003.4
20260505221135 85 138 9.0 20.0 0.00 0.00 0.00 79 1003.5
20260505215628 86 103 9.0 20.0 0.00 0.00 0.00 77 1003.8
20260505214122 87 141 10.0 20.0 0.00 0.00 0.00 75 1003.6
20260505212621 87 140 7.0 16.0 0.00 0.00 0.00 78 1003.7
20260505211142 87 140 8.0 17.0 0.00 0.00 0.00 76 1003.8
20260505205618 87 121 10.0 16.0 0.00 0.00 0.00 75 1004.0
20260505204140 86 102 12.0 16.0 0.00 0.00 0.00 76 1004.1
20260505202914 86 123 12.0 20.0 0.00 0.00 0.00 76 1004.4
20260505181125 86 185 9.0 16.0 0.00 0.00 0.00 77 1005.7
20260505175626 86 188 10.0 17.0 0.00 0.00 0.00 75 1005.9
20260505174125 86 119 8.0 20.0 0.00 0.00 0.00 76 1006.0
20260505172705 85 157 9.0 17.0 0.00 0.00 0.00 77 1006.1
20260505171117 85 102 8.0 18.0 0.00 0.00 0.00 78 1006.3
20260505165637 84 154 6.0 13.0 0.00 0.00 0.00 79 1006.4
20260505164148 84 169 7.0 14.0 0.00 0.00 0.00 80 1006.6
20260505162626 84 126 7.0 16.0 0.00 0.00 0.00 80 1006.8
20260505161147 83 175 9.0 16.0 0.00 0.00 0.00 80 1006.9
20260505152625 82 140 7.0 19.0 0.00 0.00 0.00 83 1006.9
20260505151124 82 177 7.0 19.0 0.00 0.00 0.00 83 1006.9
20260505124122 77 115 6.0 9.0 0.00 0.00 0.00 95 1006.5
20260505122618 76 175 4.0 10.0 0.00 0.00 0.00 95 1006.6
20260505121134 76 152 5.0 9.0 0.00 0.00 0.00 95 1006.5
20260505115655 76 145 5.0 10.0 0.00 0.00 0.00 95 1006.4
20260505114125 76 149 4.0 9.0 0.00 0.00 0.00 95 1006.6
20260505112616 76 173 4.0 9.0 0.00 0.00 0.00 95 1006.6
20260505111120 76 113 4.0 11.0 0.00 0.00 0.00 95 1006.5
20260505101122 76 113 5.0 10.0 0.00 0.00 0.00 95 1006.5
20260505095643 76 144 7.0 11.0 0.00 0.00 0.00 95 1006.5
20260505094122 76 153 6.0 12.0 0.00 0.00 0.00 94 1006.6
20260505092619 76 161 5.0 12.0 0.00 0.00 0.00 94 1006.7
20260505091118 76 142 5.0 8.0 0.00 0.00 0.00 95 1006.8
20260505085619 76 148 4.0 8.0 0.00 0.00 0.00 95 1007.0
20260505084136 75 142 5.0 9.0 0.00 0.00 0.00 95 1007.1
20260505082632 75 142 5.0 12.0 0.00 0.00 0.00 95 1007.2
20260505081123 75 120 5.0 8.0 0.00 0.00 0.00 95 1007.0
20260505075623 75 152 4.0 10.0 0.00 0.00 0.00 94 1007.0
20260505074123 74 156 4.0 9.0 0.00 0.00 0.00 94 1007.3
20260505072624 74 150 3.0 8.0 0.00 0.00 0.00 94 1007.6
20260505071122 74 136 3.0 5.0 0.00 0.00 0.00 93 1007.7
20260505065625 74 140 3.0 8.0 0.00 0.00 0.00 93 1007.9
20260505064123 74 150 3.0 10.0 0.00 0.00 0.00 93 1007.8
20260505062622 75 142 4.0 8.0 0.00 0.00 0.00 93 1008.5
20260505061124 74 142 3.0 8.0 0.00 0.00 0.00 92 1008.3
20260505055623 75 163 4.0 8.0 0.00 0.00 0.00 92 1008.6
20260505054142 75 122 4.0 9.0 0.00 0.00 0.00 92 1008.6
20260505052620 75 148 4.0 7.0 0.00 0.00 0.00 92 1009.0
20260505051119 75 128 4.0 8.0 0.00 0.00 0.00 92 1009.1
20260505041146 75 126 3.0 8.0 0.00 0.00 0.00 91 1009.3
20260505035628 75 123 4.0 8.0 0.00 0.00 0.00 91 1009.5
20260505034128 75 140 4.0 7.0 0.00 0.00 0.00 90 1009.6